{"data":{"norad_id":63186,"epoch":"2026-05-25T04:05:25.440576Z","epoch_age_seconds":56943,"freshness":"FRESH","line1":"1 63186U 25048D   26145.17043334  .00172032  00000+0  13141-2 0  9992","line2":"2 63186  43.0014 218.5341 0001901 266.7789  93.2861 15.70885748 70557","mean_motion":15.70885748,"eccentricity":0.0001901,"inclination_deg":43.0014,"raan_deg":218.5341,"arg_perigee_deg":266.7789,"mean_anomaly_deg":93.2861,"bstar":0.0013141,"rev_number":7055,"period_min":91.668028806892,"perigee_km":355.08407969725,"apogee_km":357.6445370947,"semimajor_km":6734.501308396,"source":"CELESTRAK","updated_at":"2026-05-25T13:38:19.919299Z"}}